Flag for France Weather past 2 weeks in Saint-Étienne, France

Now
36 °F

Mostly cloudy.


Feels Like: 26 °F
Forecast: 31 / 46 °F
Wind: 15 mph from North

Location: St-Etienne Boutheon

Current Time: Mar 5, 2015 at 4:33:11 AM

Latest Report: Mar 5, 2015 at 4:00 AM


Visibility: N/A

Pressure: 30.48 "Hg

Humidity: 81%

Dew point: 30 °F

Location of Saint-ÉtienneLocation

Historic Weather in Saint-Étienne — Graph

°F

Saint-Étienne temperature yesterday

Maximum temperature yesterday: 45 °F (at 12:00 AM)
Minimum temperature yesterday: 36 °F (at 10:00 PM)
Average temperature yesterday: 40 °F

Past Weeks' High & Low Weather Summary

 TemperatureHumidityPressure
High61 °F (Mar 1, 2:00 PM)100% (Feb 21, 10:00 AM)30.60 "Hg (Feb 21, 10:00 AM)
Low25 °F (Feb 28, 7:00 AM)19% (Feb 20, 12:30 PM)29.56 "Hg (Feb 21, 6:30 AM)
Average42 °F73%30.06 "Hg
* Reported Feb 18 3:00 AM — Mar 5 3:00 AM, Saint-Étienne, Weather by CustomWeather, © 2015

Note: Actual official high and low records may vary slightly from our data, if they occured in-between our weather recording intervals... More about our weather records

Advertising

Saint-Étienne weather history for previous 24 hours

 ConditionsComfort  
Time TempWeatherWind HumidityBarometerVisibility
3:00 AM
Thu, Mar 5
36 °FMostly cloudy.13 mph87%30.48 "HgN/A
2:30 AM36 °FOvercast.15 mph87%30.48 "HgN/A
2:00 AM36 °FPassing clouds.15 mph87%30.48 "HgN/A
1:30 AM36 °FMostly cloudy.15 mph87%30.48 "HgN/A
1:00 AM36 °FMostly cloudy.14 mph87%30.48 "HgN/A
12:30 AM36 °FMostly cloudy.16 mph87%30.48 "HgN/A
12:00 AM36 °FPassing clouds.14 mph87%30.45 "HgN/A
11:30 PM
Wed, Mar 4
36 °FPassing clouds.14 mph87%30.45 "HgN/A
11:00 PM36 °FMostly cloudy.13 mph87%30.45 "HgN/A
10:00 PM36 °FLight rain. Mostly cloudy.12 mph93%30.45 "HgN/A
9:30 PM37 °FOvercast.17 mph81%30.45 "HgN/A
9:00 PM37 °FPassing clouds.15 mph81%30.42 "HgN/A
8:30 PM37 °FMostly cloudy.10 mph81%30.42 "HgN/A
8:00 PM37 °FMostly cloudy.12 mph81%30.42 "HgN/A
7:30 PM37 °FMostly cloudy.8 mph81%30.39 "HgN/A
7:00 PM37 °FPartly cloudy.5 mph81%30.39 "HgN/A
6:30 PM37 °FPartly sunny.9 mph81%30.39 "HgN/A
6:00 PM39 °FPartly sunny.9 mph70%30.36 "HgN/A
5:30 PM39 °FScattered clouds.10 mph70%30.36 "HgN/A
5:00 PM39 °FScattered clouds.9 mph75%30.36 "HgN/A
4:30 PM39 °FScattered clouds.12 mph75%30.36 "HgN/A
4:00 PM39 °FPartly sunny.13 mph75%30.36 "HgN/A
3:30 PM37 °FPartly sunny.13 mph81%30.36 "HgN/A
3:00 PM43 °FPartly sunny.13 mph57%30.33 "HgN/A
2:30 PM39 °FScattered clouds.16 mph75%30.33 "HgN/A
2:00 PM41 °FScattered clouds.9 mph70%30.36 "HgN/A
1:30 PM39 °FBroken clouds.9 mph75%30.36 "HgN/A
1:00 PM43 °FBroken clouds.14 mph57%30.36 "HgN/A
12:30 PM41 °FBroken clouds.9 mph66%30.39 "HgN/A
12:00 PM41 °FBroken clouds.13 mph66%30.39 "HgN/A
11:30 AM41 °FPartly sunny.13 mph70%30.39 "HgN/A
11:00 AM41 °FPartly sunny.13 mph70%30.39 "HgN/A
10:30 AM41 °FPartly sunny.9 mph76%30.36 "HgN/A
10:00 AM39 °FBroken clouds.7 mph87%30.36 "HgN/A
9:30 AM39 °FPartly sunny.3 mph87%30.36 "HgN/A
9:00 AM39 °FBroken clouds.3 mph87%30.36 "HgN/A
8:30 AM37 °FLight rain. Broken clouds.5 mph93%30.33 "HgN/A
8:00 AM37 °FLight rain. Broken clouds.2 mph93%30.33 "HgN/A
7:30 AM37 °FLight rain. Broken clouds.2 mph93%30.33 "HgN/A
7:00 AM37 °FLight rain. Partly cloudy.2 mph93%30.33 "HgN/A
6:30 AM37 °FLight rain. Partly cloudy.5 mph93%30.33 "HgN/A
6:00 AM37 °FLight rain. Partly cloudy.7 mph93%30.33 "HgN/A
5:30 AM39 °FLight rain. Mostly cloudy.12 mph87%30.30 "HgN/A
5:00 AM39 °FLight rain. Passing clouds.10 mph87%30.30 "HgN/A
4:30 AM41 °FLight rain. Partly cloudy.9 mph87%30.30 "HgN/A
4:00 AM41 °FLight rain. Passing clouds.10 mph87%30.27 "HgN/A
Weather by CustomWeather, © 2015

See weather overviewHow to use our weather pages